Location: Poughquag
(41.6090°N, 73.6820°W)
Time: 14:04:17
(UTC-04:00)

X-37B - Visible Passes

Search period start: 16 April 2021 00:00
Search period end: 26 April 2021 00:00
Orbit: 380 x 394 km, 45.0° (Epoch: 07 April)

Date Brightness Start Highest point End Pass type
(mag) Time Alt. Az. Time Alt. Az. Time Alt. Az.
16 Apr 2.2 04:12:48 27° SE 04:12:48 27° SE 04:15:03 10° E visible
17 Apr 0.5 04:49:12 36° WSW 04:50:21 86° SSE 04:53:32 10° ENE visible
18 Apr 2.3 03:53:17 30° E 03:53:17 30° E 03:55:07 10° ENE visible
18 Apr 1.3 05:25:35 10° W 05:28:42 48° N 05:31:48 10° ENE visible
19 Apr 0.8 04:29:37 48° WNW 04:30:15 64° NNW 04:33:25 10° ENE visible
20 Apr 2.9 03:33:39 24° ENE 03:33:39 24° ENE 03:35:03 10° ENE visible
20 Apr 1.6 05:05:56 12° WNW 05:08:41 42° N 05:11:45 10° ENE visible
21 Apr 1.2 04:09:59 47° NNW 04:10:13 48° N 04:13:20 10° ENE visible
22 Apr 3.4 03:14:02 17° ENE 03:14:02 17° ENE 03:14:57 10° ENE visible
22 Apr 1.6 04:46:18 15° WNW 04:48:41 43° N 04:51:45 10° ENE visible
23 Apr 1.7 03:50:24 42° N 03:50:24 42° N 03:53:16 10° ENE visible
23 Apr 1.0 05:23:56 10° WNW 05:27:07 64° NNE 05:30:16 10° E visible
24 Apr 3.9 02:54:34 12° ENE 02:54:34 12° ENE 02:54:51 10° ENE visible
24 Apr 1.4 04:26:51 21° WNW 04:28:41 49° N 04:31:47 10° E visible
25 Apr 2.3 03:31:05 33° NE 03:31:05 33° NE 03:33:17 10° ENE visible
25 Apr 0.5 05:03:48 10° WNW 05:07:01 86° SSW 05:10:12 10° ESE visible
